TimeEDT,TemperatureF,Dew PointF,Humidity,Sea Level PressureIn,VisibilityMPH,Wind Direction,Wind SpeedMPH,Gust SpeedMPH,PrecipitationIn,Events,Conditions,WindDirDegrees,DateUTC
12:15 AM,54.7,50.2,85,29.84,10.0,NE,4.6,-,N/A,,Clear,40,2012-10-02 04:15:00
12:35 AM,54.9,50.4,85,29.84,10.0,Calm,Calm,-,N/A,,Clear,0,2012-10-02 04:35:00
12:55 AM,55.2,50.2,83,29.83,10.0,North,4.6,-,N/A,,Clear,10,2012-10-02 04:55:00
1:15 AM,55.4,50.4,83,29.82,10.0,NNE,4.6,-,N/A,,Clear,30,2012-10-02 05:15:00
1:35 AM,55.6,50.4,83,29.82,10.0,NE,4.6,-,N/A,,Clear,40,2012-10-02 05:35:00
1:55 AM,54.9,50.0,84,29.82,10.0,NE,4.6,-,N/A,,Clear,40,2012-10-02 05:55:00
2:15 AM,54.5,49.3,83,29.83,10.0,Calm,Calm,-,N/A,,Clear,0,2012-10-02 06:15:00
2:55 AM,53.8,49.5,85,29.83,10.0,Calm,Calm,-,N/A,,Clear,0,2012-10-02 06:55:00
3:15 AM,53.6,49.6,86,29.82,10.0,Calm,Calm,-,N/A,,Clear,0,2012-10-02 07:15:00
3:35 AM,52.9,49.3,88,29.82,10.0,Calm,Calm,-,N/A,,Clear,0,2012-10-02 07:35:00
4:15 AM,52.3,49.3,89,29.82,10.0,Calm,Calm,-,N/A,,Clear,0,2012-10-02 08:15:00
4:35 AM,51.4,49.1,92,29.82,10.0,NNE,4.6,-,N/A,,Clear,20,2012-10-02 08:35:00
4:55 AM,52.3,49.1,89,29.83,10.0,Calm,Calm,-,N/A,,Clear,0,2012-10-02 08:55:00
5:15 AM,51.8,48.4,88,29.84,10.0,ENE,3.5,-,N/A,,Clear,60,2012-10-02 09:15:00
5:35 AM,50.9,47.7,89,29.83,10.0,NE,4.6,-,N/A,,Clear,50,2012-10-02 09:35:00
5:55 AM,54.0,47.7,79,29.83,10.0,East,5.8,-,N/A,,Clear,80,2012-10-02 09:55:00
6:35 AM,52.5,48.7,87,29.84,10.0,NE,4.6,-,N/A,,Clear,40,2012-10-02 10:35:00
6:55 AM,52.3,48.4,86,29.85,10.0,ENE,4.6,-,N/A,,Clear,70,2012-10-02 10:55:00
7:15 AM,52.5,47.8,84,29.86,10.0,Calm,Calm,-,N/A,,Clear,0,2012-10-02 11:15:00
7:35 AM,50.9,47.5,88,29.86,10.0,ENE,3.5,-,N/A,,Clear,60,2012-10-02 11:35:00
7:54 AM,51.8,47.7,86,29.86,10.0,ENE,5.8,-,N/A,,Clear,70,2012-10-02 11:54:00
8:15 AM,49.6,47.1,91,29.87,10.0,East,3.5,-,N/A,,Clear,80,2012-10-02 12:15:00
8:35 AM,50.4,47.5,90,29.87,10.0,East,4.6,-,N/A,,Clear,80,2012-10-02 12:35:00
8:55 AM,52.7,48.2,85,29.87,10.0,ENE,3.5,-,N/A,,Clear,70,2012-10-02 12:55:00
9:15 AM,55.6,48.7,78,29.88,10.0,ENE,4.6,-,N/A,,Clear,70,2012-10-02 13:15:00
9:35 AM,58.1,49.3,72,29.88,10.0,Calm,Calm,-,N/A,,Clear,0,2012-10-02 13:35:00
9:55 AM,59.9,49.3,68,29.88,10.0,ENE,5.8,-,N/A,,Clear,70,2012-10-02 13:55:00
10:15 AM,61.7,48.0,61,29.88,10.0,ENE,6.9,-,N/A,,Clear,60,2012-10-02 14:15:00
10:35 AM,62.6,48.2,59,29.88,10.0,NE,9.2,-,N/A,,Clear,50,2012-10-02 14:35:00
10:55 AM,64.2,48.4,56,29.88,10.0,East,5.8,-,N/A,,Clear,80,2012-10-02 14:55:00
11:15 AM,65.1,47.3,52,29.88,10.0,ENE,9.2,-,N/A,,Clear,60,2012-10-02 15:15:00
11:35 AM,66.0,46.9,50,29.87,10.0,ENE,6.9,-,N/A,,Clear,70,2012-10-02 15:35:00
11:55 AM,67.5,47.5,49,29.87,10.0,East,9.2,16.1,N/A,,Clear,80,2012-10-02 15:55:00
12:15 PM,67.5,46.6,47,29.87,10.0,NE,11.5,-,N/A,,Clear,50,2012-10-02 16:15:00
12:35 PM,68.2,46.6,46,29.87,10.0,NE,8.1,16.1,N/A,,Clear,50,2012-10-02 16:35:00
12:55 PM,68.9,45.3,43,29.87,10.0,NE,10.4,18.4,N/A,,Clear,50,2012-10-02 16:55:00
1:15 PM,69.3,45.0,42,29.87,10.0,NE,9.2,18.4,N/A,,Clear,40,2012-10-02 17:15:00
1:34 PM,70.2,45.5,41,29.86,10.0,ENE,8.1,-,N/A,,Clear,70,2012-10-02 17:34:00
1:55 PM,70.5,45.3,40,29.85,10.0,NE,10.4,-,N/A,,Clear,40,2012-10-02 17:55:00
2:15 PM,71.1,45.7,40,29.85,10.0,NE,10.4,-,N/A,,Clear,40,2012-10-02 18:15:00
2:35 PM,70.3,43.9,38,29.85,10.0,NE,9.2,-,N/A,,Clear,50,2012-10-02 18:35:00
2:55 PM,71.8,45.1,38,29.85,10.0,ENE,6.9,16.1,N/A,,Clear,70,2012-10-02 18:55:00
3:15 PM,71.4,43.7,37,29.84,10.0,ENE,9.2,-,N/A,,Clear,60,2012-10-02 19:15:00
3:35 PM,72.5,43.0,35,29.84,10.0,NNE,9.2,-,N/A,,Clear,20,2012-10-02 19:35:00
3:55 PM,68.9,52.3,55,29.84,10.0,North,10.4,18.4,N/A,,Clear,350,2012-10-02 19:55:00
4:14 PM,69.6,52.0,53,29.84,10.0,NNW,13.8,-,N/A,,Clear,330,2012-10-02 20:14:00
4:35 PM,69.6,51.8,53,29.84,10.0,NNW,12.7,-,N/A,,Clear,340,2012-10-02 20:35:00
4:55 PM,68.9,53.6,58,29.84,10.0,North,12.7,16.1,N/A,,Clear,350,2012-10-02 20:55:00
5:15 PM,68.5,53.4,58,29.84,10.0,NNW,5.8,-,N/A,,Clear,340,2012-10-02 21:15:00
5:35 PM,67.3,54.1,63,29.84,10.0,NNW,8.1,-,N/A,,Clear,340,2012-10-02 21:35:00
5:55 PM,66.7,54.5,65,29.84,10.0,North,5.8,-,N/A,,Clear,350,2012-10-02 21:55:00
6:15 PM,65.8,55.2,69,29.84,10.0,North,4.6,-,N/A,,Mostly Cloudy,360,2012-10-02 22:15:00
6:35 PM,65.7,55.8,70,29.85,10.0,Calm,Calm,-,N/A,,Overcast,0,2012-10-02 22:35:00
6:55 PM,65.3,56.5,73,29.85,10.0,North,3.5,-,N/A,,Overcast,350,2012-10-02 22:55:00
7:15 PM,64.6,56.5,75,29.86,10.0,Calm,Calm,-,N/A,,Overcast,0,2012-10-02 23:15:00
7:35 PM,64.2,56.7,76,29.86,10.0,Calm,Calm,-,N/A,,Overcast,0,2012-10-02 23:35:00
7:55 PM,64.0,57.0,78,29.87,10.0,Calm,Calm,-,N/A,,Overcast,0,2012-10-02 23:55:00
8:15 PM,63.5,57.2,80,29.88,10.0,Calm,Calm,-,N/A,,Overcast,0,2012-10-03 00:15:00
8:35 PM,63.5,57.4,80,29.88,10.0,Calm,Calm,-,N/A,,Overcast,0,2012-10-03 00:35:00
8:55 PM,63.1,57.6,82,29.88,10.0,Calm,Calm,-,N/A,,Overcast,0,2012-10-03 00:55:00
9:15 PM,63.1,57.4,81,29.89,10.0,Calm,Calm,-,N/A,,Overcast,0,2012-10-03 01:15:00
9:35 PM,63.7,54.3,72,29.90,10.0,Calm,Calm,-,N/A,,Overcast,0,2012-10-03 01:35:00
9:55 PM,64.6,51.3,62,29.90,10.0,Calm,Calm,-,N/A,,Overcast,0,2012-10-03 01:55:00
10:15 PM,64.8,49.5,58,29.90,10.0,Calm,Calm,-,N/A,,Overcast,0,2012-10-03 02:15:00
10:35 PM,64.4,48.7,57,29.90,10.0,Calm,Calm,-,N/A,,Overcast,0,2012-10-03 02:35:00
10:55 PM,64.0,48.6,57,29.90,10.0,Calm,Calm,-,N/A,,Overcast,0,2012-10-03 02:55:00
11:15 PM,63.0,49.6,62,29.90,10.0,Calm,Calm,-,N/A,,Overcast,0,2012-10-03 03:15:00
11:34 PM,62.8,50.0,63,29.91,10.0,Calm,Calm,-,N/A,Rain,Rain,0,2012-10-03 03:34:00
11:55 PM,59.2,55.4,87,29.91,10.0,Calm,Calm,-,N/A,,Overcast,0,2012-10-03 03:55:00